COSMOS 886 DEB *

Satellite information

Favourite Embed

Satellite Type and Status

DEBRISIN ORBIT

Key statistics

Satellite COSMOS 886 DEB * at a glance.

Uptime

17844

Days in orbit

Revolutions

≈ 14.3

Per day

Orbit

LEO

Low Earth Orbit

Inclination

65.6

Latest

Satellite identification and parameters

Extended collection of information and parameters for COSMOS 886 DEB *.

Object identification

Identified? True

Debris? True

Object name: COSMOS 886 DEB *

International designator: 1976-126BM

Object number (NORAD): 13943

Object ID (CCSDS): 13943

Country: COMMONWEALTH OF INDEPENDENT STATES (CIS)

Current information (Y/N): Y

RCS size: SMALL

Orbital parameters

Period: 100.362 minutes

Inclination: 65.5757 deg

SMA: 7153.86 km

Apoapsis: 812.119 km

Periapsis: 739.332 km

RAAN: 201.7613 deg

Eccentricy: 0.00508727

Argument of periapsis: 32.0457 deg

Mean anomaly: 92.8911 deg

Mean motion: 14.34802354 rev/day

Mean motion (dot): 0.00006073 rev/day2

B* drag term: 0.00213714 1/REarth

Two-line elements (TLE)

Creation date: Nov. 2, 2025, 5:34 p.m.

Reference frame: TEME

Reference center: EARTH

Epoch: Nov. 2, 2025, 2:55 a.m. UTC

TLE line 0: 0 COSMOS 886 DEB *

TLE line 1: 1 13943U 76126BM 25306.12206494 .00006073 00000-0 21371-2 0 9998

TLE line 2: 2 13943 65.5757 201.7613 0050873 32.0457 92.8911 14.34802354110704

Live tracking on map

Real-time ground track for satellite COSMOS 886 DEB *.

In-orbit conjunctions

A list of the most updated potential collisions computed for object COSMOS 886 DEB *.

Target Orbit TCA Probability of collision Miss distance Type
FENGYUN 1C DEB SSO 2024-11-12 07:36:59 0.0002921893 612.0 (m) DEBRIS
COSMOS 1275 DEB LEO 2024-07-01 06:20:49 0.000149179 317.0 (m) DEBRIS

Associated space launch

Second generation ASAT satellite

COSMOS 886 DEB * was lifted into orbit during the mission ‘Tsiklon-2 | IS-A 4’, on board a Tsiklon-2 space rocket.

The launch took place on Dec. 27, 1976, 12:05 p.m. from 90.

For more information about the launch, click the button.

Launch to space Tsiklon-2 | IS-A 4
Tsiklon-2 | IS-A 4

Agency: N/A

Status: Launch Successful

Launch date: Dec. 27, 1976, 12:05 p.m. UTC

Rocket: Tsiklon-2

Launch pad: 90

Location: Baikonur Cosmodrome, Republic of Kazakhstan

...

Latest news about this satellite

There are no fresh news available about this satellite. Check back as we update our databases every day.


Newsletter sign-up

Weekly statistics, charts and insights to help you stay on top of the space industry.